User: anonymous   Login
Location: A O Calhoun Middle School
(33.2198°N, 97.1397°W)
Time: 23:03:28
(UTC+00:00)
Language:

Cosmos 1939 Rocket - Orbit

View from above orbital plane
View from above orbital plane
View from above satellite
View from above satellite

Ground track
Ground track

The orbit data is extracted from the following two-line orbital elements,

1 19046U 88032B   22139.50847247  .00002822  00000-0  20773-3 0  9991
2 19046  97.3920 139.7418 0035885 341.0352  18.9535 15.03639145842262
Epoch (UTC): 19 May 2022 12:12:12
Eccentricity: 0.0035885
inclination: 97.3920°
perigee height: 531 km
apogee height: 580 km
right ascension of ascending node: 139.7418°
argument of perigee: 341.0352°
revolutions per day: 15.03639145
mean anomaly at epoch: 18.9535°
orbit number at epoch: 84226

The dashed part of the orbit path shows where the satellite is in the earth's shadow,  

DLR